Regional Weather Roundup
Issued by NWS

Home | Current Version | Previous Version | Graphics & Text | Print | Product List | Glossary On
Versions: 1 2 3 4 5 6 7 8 9 10 11 12 13 14 15 16 17 18 19 20 21 22 23 24 25 26 27 28 29 30 31 32 33 34 35 36 37 38 39 40 41 42 43 44 45 46 47 48 49 50
000
ASUS43 KLSX 221507
RWRMO

WEATHER SUMMARY FOR MISSOURI
NATIONAL WEATHER SERVICE SPRINGFIELD MO
1000 AM CDT MON MAY 22 2017

NOTE: "FAIR" INDICATES FEW OR NO CLOUDS BELOW 12,000 FEET WITH NO
       SIGNIFICANT WEATHER AND/OR OBSTRUCTIONS TO VISIBILITY.
       CURRENT SKY AND/OR WEATHER CONDITIONS ARE NOT AVAILABLE FOR
       CHILLICOTHE AND FARMINGTON.

MOZ001>031-035>038-043-044-053-054-221600-
...NORTHERN AND WESTERN MISSOURI...

CITY           SKY/WX    TMP DP  RH WIND       PRES   REMARKS
KANSAS CTY INT CLOUDY    65  54  67 SW10      30.04F
KANSAS C DTWN  CLOUDY    69  53  56 SW13      30.04S
LEE`S SUMMIT   CLOUDY    68  55  63 SW10      30.07S
ST JOSEPH      CLOUDY    62  56  80 S8        30.02F
CHILLICOTHE      N/A     66  55  67 SW7       30.04F
KIRKSVILLE     MOSUNNY   68  49  50 SW12G20   30.04F

$$
MOZ066>068-077>081-088>096-101>105-221600-
...SOUTHWEST MISSOURI...

CITY           SKY/WX    TMP DP  RH WIND       PRES   REMARKS
SPRINGFIELD    MOSUNNY   66  51  58 S12       30.13F
JOPLIN         SUNNY     71  53  52 S10       30.12F
BRANSON        PTSUNNY   64  46  52 S6        30.16S

$$
MOZ032>034-039>042-045>050-055>058-069>072-221600-
...CENTRAL MISSOURI...

CITY           SKY/WX    TMP DP  RH WIND       PRES   REMARKS
COLUMBIA       SUNNY     66  51  58 S10       30.10F
JEFFERSON CITY SUNNY     68  48  48 S10       30.11S
ROLLA          SUNNY     65  49  56 S13       30.12S
SEDALIA        MOSUNNY   68  56  65 SW10      30.10F
WHITEMAN AFB   MOSUNNY   68  57  67 SW12      30.07F
WARRENSBURG    SUNNY     68  54  60 S14       30.08S
OSAGE BEACH    CLOUDY    66  52  60 S8        30.13S

$$
MOZ051-052-059>065-221600-
...EAST CENTRAL MISSOURI...

CITY           SKY/WX    TMP DP  RH WIND       PRES   REMARKS
ST LOUIS INTL  MOSUNNY   71  46  40 S5        30.12F
SPIRIT OF STL  MOSUNNY   68  47  46 SW7       30.10F
ST CHARLES     SUNNY     67  51  56 S7        30.10F

$$
MOZ072>076-082>087-097>100-106>115-221600-
...SOUTH CENTRAL AND SOUTHEAST MISSOURI...

CITY           SKY/WX    TMP DP  RH WIND       PRES   REMARKS
CAPE GIRARDEAU MOSUNNY   65  51  60 SE6       30.14F
FARMINGTON     CLOUDY    64  51  62 SE5       30.14F
POPLAR BLUFF   CLOUDY    66  53  63 SE7       30.14F
WEST PLAINS    CLOUDY    64  45  49 SE7       30.16S

$$




USA.gov is the U.S. government's official web portal to all federal, state and local government web resources and services.